| time (UTC) | temp F | wind direction | speed MPH | gust MPH | rain 1hr in | rain 24hr in | rain mn in | humidity % | barometer mb |
| 20260831121533 | 58 | 45 | 0.0 | 0.0 | 0.00 | 0.04 | 0.00 | 82 | 1018.6 |
| 20260831120041 | 56 | 20 | 0.0 | 0.0 | 0.00 | 0.04 | 0.00 | 87 | 1018.6 |
| 20260831114526 | 55 | 50 | 0.0 | 0.0 | 0.00 | 0.04 | 0.00 | 92 | 1018.8 |
| 20260831113051 | 54 | 316 | 0.0 | 0.0 | 0.00 | 0.04 | 0.00 | 93 | 1018.7 |
| 20260831111526 | 53 | 319 | 0.0 | 0.0 | 0.00 | 0.04 | 0.00 | 92 | 1018.4 |
| 20260831110012 | 52 | 319 | 0.0 | 0.0 | 0.00 | 0.04 | 0.00 | 92 | 1018.4 |
| 20260831104553 | 52 | 319 | 0.0 | 0.0 | 0.00 | 0.04 | 0.00 | 91 | 1018.2 |
| 20260831103017 | 52 | 319 | 0.0 | 0.0 | 0.00 | 0.04 | 0.00 | 90 | 1017.9 |
| 20260831101552 | 52 | 319 | 0.0 | 0.0 | 0.00 | 0.04 | 0.00 | 91 | 1017.8 |
| 20260831100033 | 52 | 319 | 0.0 | 0.0 | 0.00 | 0.04 | 0.00 | 90 | 1017.8 |
| 20260831094508 | 53 | 319 | 0.0 | 0.0 | 0.00 | 0.04 | 0.00 | 89 | 1017.6 |
| 20260831093050 | 53 | 318 | 0.0 | 0.0 | 0.00 | 0.04 | 0.00 | 88 | 1017.6 |
| 20260831091526 | 54 | 318 | 0.0 | 0.0 | 0.00 | 0.04 | 0.00 | 87 | 1017.4 |
| 20260831090101 | 55 | 318 | 0.0 | 0.0 | 0.00 | 0.04 | 0.00 | 87 | 1017.2 |
| 20260831084535 | 56 | 318 | 0.0 | 0.0 | 0.00 | 0.04 | 0.00 | 86 | 1016.9 |
| 20260831083009 | 56 | 318 | 0.0 | 0.0 | 0.00 | 0.04 | 0.00 | 86 | 1016.8 |
| 20260831081543 | 57 | 303 | 0.0 | 0.0 | 0.00 | 0.04 | 0.00 | 85 | 1016.8 |
| 20260831080029 | 57 | 324 | 0.0 | 0.0 | 0.00 | 0.04 | 0.00 | 84 | 1016.6 |
| 20260831074502 | 58 | 355 | 0.0 | 0.0 | 0.00 | 0.04 | 0.00 | 84 | 1016.5 |
| 20260831073037 | 57 | 306 | 0.0 | 1.0 | 0.00 | 0.04 | 0.00 | 86 | 1016.4 |
| 20260831071526 | 57 | 355 | 0.0 | 0.0 | 0.00 | 0.04 | 0.00 | 87 | 1016.3 |
| 20260831070052 | 57 | 325 | 0.0 | 0.0 | 0.00 | 0.04 | 0.00 | 87 | 1016.2 |
| 20260831064529 | 57 | 333 | 0.0 | 0.0 | 0.00 | 0.04 | 0.00 | 87 | 1016.2 |
| 20260831063005 | 57 | 10 | 0.0 | 0.0 | 0.00 | 0.04 | 0.00 | 87 | 1016.2 |
| 20260831061544 | 57 | 328 | 0.0 | 0.0 | 0.00 | 0.04 | 0.00 | 87 | 1016.0 |
| 20260831060030 | 57 | 20 | 0.0 | 0.0 | 0.00 | 0.04 | 0.00 | 87 | 1015.9 |
| 20260831054503 | 58 | 271 | 0.0 | 0.0 | 0.00 | 0.04 | 0.00 | 87 | 1015.7 |
| 20260831053042 | 58 | 309 | 0.0 | 0.0 | 0.00 | 0.04 | 0.00 | 88 | 1015.6 |
| 20260831051518 | 58 | 305 | 0.0 | 0.0 | 0.00 | 0.04 | 0.00 | 87 | 1015.4 |
| 20260831050055 | 58 | 305 | 0.0 | 0.0 | 0.00 | 0.04 | 0.00 | 87 | 1015.4 |
| 20260831044539 | 59 | 305 | 0.0 | 0.0 | 0.00 | 0.04 | 0.00 | 87 | 1015.4 |
| 20260831043013 | 60 | 305 | 0.0 | 0.0 | 0.00 | 0.04 | 0.00 | 86 | 1015.4 |
| 20260831041559 | 60 | 305 | 0.0 | 0.0 | 0.00 | 0.04 | 0.00 | 85 | 1015.3 |
| 20260831040024 | 61 | 305 | 0.0 | 0.0 | 0.00 | 0.04 | 0.04 | 84 | 1015.4 |
| 20260831034607 | 62 | 305 | 0.0 | 0.0 | 0.00 | 0.04 | 0.04 | 82 | 1015.3 |
| 20260831033040 | 62 | 311 | 0.0 | 0.0 | 0.01 | 0.04 | 0.04 | 81 | 1015.0 |
| 20260831031519 | 63 | 321 | 0.0 | 2.0 | 0.01 | 0.04 | 0.04 | 79 | 1015.1 |
| 20260831030051 | 63 | 57 | 0.0 | 6.0 | 0.04 | 0.04 | 0.04 | 78 | 1015.3 |
| 20260831024527 | 64 | 86 | 1.0 | 8.0 | 0.04 | 0.04 | 0.04 | 76 | 1015.6 |
| 20260831023012 | 66 | 5 | 1.0 | 8.0 | 0.03 | 0.03 | 0.03 | 75 | 1015.4 |
| 20260831021552 | 68 | 215 | 0.0 | 6.0 | 0.03 | 0.03 | 0.03 | 73 | 1015.4 |
| 20260831020024 | 68 | 310 | 0.0 | 0.0 | 0.00 | 0.00 | 0.00 | 71 | 1014.3 |
| 20260831014502 | 68 | 310 | 0.0 | 0.0 | 0.00 | 0.00 | 0.00 | 72 | 1014.1 |
| 20260831013039 | 69 | 310 | 0.0 | 0.0 | 0.00 | 0.00 | 0.00 | 72 | 1013.9 |
| 20260831011516 | 69 | 310 | 0.0 | 0.0 | 0.00 | 0.00 | 0.00 | 72 | 1013.7 |
| 20260831010054 | 69 | 310 | 0.0 | 0.0 | 0.00 | 0.00 | 0.00 | 71 | 1013.6 |
| 20260831004538 | 70 | 296 | 0.0 | 0.0 | 0.00 | 0.00 | 0.00 | 70 | 1013.5 |
| 20260831003015 | 70 | 296 | 0.0 | 0.0 | 0.00 | 0.00 | 0.00 | 69 | 1013.3 |
| 20260831001550 | 69 | 262 | 0.0 | 0.0 | 0.00 | 0.00 | 0.00 | 69 | 1013.5 |
| 20260831000023 | 70 | 261 | 0.0 | 0.0 | 0.00 | 0.00 | 0.00 | 71 | 1013.1 |
| 20260830234512 | 71 | 261 | 0.0 | 0.0 | 0.00 | 0.00 | 0.00 | 70 | 1013.0 |
| 20260830233049 | 71 | 265 | 0.0 | 0.0 | 0.00 | 0.00 | 0.00 | 70 | 1013.0 |
| 20260830231523 | 72 | 265 | 0.0 | 0.0 | 0.00 | 0.00 | 0.00 | 68 | 1013.0 |
| 20260830230050 | 73 | 265 | 0.0 | 0.0 | 0.00 | 0.00 | 0.00 | 65 | 1013.0 |
| 20260830224536 | 73 | 265 | 0.0 | 0.0 | 0.00 | 0.00 | 0.00 | 63 | 1013.0 |
| 20260830223012 | 73 | 263 | 0.0 | 0.0 | 0.00 | 0.00 | 0.00 | 62 | 1013.2 |
| 20260830221548 | 74 | 263 | 0.0 | 0.0 | 0.00 | 0.00 | 0.00 | 61 | 1013.2 |
| 20260830220023 | 74 | 265 | 0.0 | 0.0 | 0.00 | 0.00 | 0.00 | 59 | 1013.2 |
| 20260830214508 | 74 | 241 | 0.0 | 0.0 | 0.00 | 0.00 | 0.00 | 58 | 1013.3 |
| 20260830213054 | 74 | 263 | 0.0 | 1.0 | 0.00 | 0.00 | 0.00 | 58 | 1013.4 |
| 20260830211544 | 75 | 243 | 0.0 | 0.0 | 0.00 | 0.00 | 0.00 | 58 | 1013.5 |
| 20260830210015 | 75 | 335 | 0.0 | 0.0 | 0.00 | 0.00 | 0.00 | 59 | 1013.5 |
| 20260830204551 | 75 | 282 | 0.0 | 1.0 | 0.00 | 0.00 | 0.00 | 59 | 1013.5 |
| 20260830203043 | 74 | 229 | 0.0 | 0.0 | 0.00 | 0.00 | 0.00 | 59 | 1013.6 |
| 20260830201502 | 74 | 257 | 0.0 | 0.0 | 0.00 | 0.00 | 0.00 | 60 | 1013.6 |
| 20260830200016 | 74 | 280 | 0.0 | 1.0 | 0.00 | 0.00 | 0.00 | 59 | 1013.9 |
| 20260830194521 | 74 | 247 | 0.0 | 6.0 | 0.00 | 0.00 | 0.00 | 60 | 1014.1 |
| 20260830193009 | 74 | 248 | 0.0 | 0.0 | 0.00 | 0.00 | 0.00 | 61 | 1014.1 |
| 20260830191543 | 74 | 234 | 0.0 | 0.0 | 0.00 | 0.00 | 0.00 | 62 | 1014.2 |
| 20260830190026 | 73 | 287 | 0.0 | 0.0 | 0.00 | 0.00 | 0.00 | 64 | 1014.5 |
| 20260830184559 | 72 | 266 | 0.0 | 2.0 | 0.00 | 0.00 | 0.00 | 65 | 1014.7 |
| 20260830183033 | 72 | 243 | 0.0 | 0.0 | 0.00 | 0.00 | 0.00 | 66 | 1015.0 |
| 20260830181518 | 72 | 247 | 0.0 | 7.0 | 0.00 | 0.00 | 0.00 | 66 | 1015.1 |
| 20260830180056 | 72 | 241 | 0.0 | 0.0 | 0.00 | 0.00 | 0.00 | 65 | 1015.4 |
| 20260830174538 | 72 | 249 | 0.0 | 1.0 | 0.00 | 0.00 | 0.00 | 66 | 1015.5 |
| 20260830173010 | 74 | 273 | 0.0 | 5.0 | 0.00 | 0.00 | 0.00 | 63 | 1015.6 |
| 20260830171546 | 76 | 53 | 0.0 | 8.0 | 0.00 | 0.00 | 0.00 | 58 | 1015.3 |
| 20260830170027 | 77 | 304 | 3.0 | 9.0 | 0.00 | 0.00 | 0.00 | 53 | 1015.5 |
| 20260830164506 | 78 | 336 | 0.0 | 8.0 | 0.00 | 0.00 | 0.00 | 52 | 1015.3 |
| 20260830163045 | 78 | 302 | 0.0 | 0.0 | 0.00 | 0.00 | 0.00 | 53 | 1015.3 |
| 20260830161519 | 79 | 307 | 2.0 | 8.0 | 0.00 | 0.00 | 0.00 | 52 | 1015.4 |
| 20260830160058 | 78 | 234 | 0.0 | 9.0 | 0.00 | 0.00 | 0.00 | 52 | 1015.7 |
| 20260830154511 | 79 | 344 | 0.0 | 5.0 | 0.00 | 0.00 | 0.00 | 52 | 1015.8 |
| 20260830153042 | 78 | 262 | 0.0 | 0.0 | 0.00 | 0.00 | 0.00 | 53 | 1015.8 |
| 20260830151525 | 76 | 315 | 0.0 | 0.0 | 0.00 | 0.00 | 0.00 | 55 | 1016.1 |
| 20260830150101 | 75 | 240 | 0.0 | 0.0 | 0.00 | 0.00 | 0.00 | 58 | 1016.1 |
| 20260830144539 | 75 | 203 | 0.0 | 0.0 | 0.00 | 0.00 | 0.00 | 58 | 1016.3 |
| 20260830143028 | 73 | 228 | 0.0 | 0.0 | 0.00 | 0.00 | 0.00 | 61 | 1016.6 |
| 20260830141554 | 72 | 215 | 0.0 | 0.0 | 0.00 | 0.00 | 0.00 | 62 | 1016.6 |